Content
SEND FEEDBACK

Daily
Averages
Monthly
Summary
United States of America

BIG WATER, UTAH


Home > North America > United States > Utah
Elevation: 4166 feet     Latitude: 37 05N     Longitude: 111 40W

WEATHER
 
SELECT A DAY
Number of Records: 194,777;   Date Range: 1/1/95 - 8/12/14
 
SHARE

PRINT THIS DATA

[ ← Previous Day ]
WEATHER ALMANAC - NOVEMBER 9, 2013
[ Next Day → ]
[ °C ]   °F
Weather ElementAverageHighLow
Temperature51.3 °F64.9 °F (3:53 pm)39 °F (5:53 am)
Dewpoint17.3 °F19.9 °F (8:53 pm)15.1 °F (6:53 am)
Humidity27.3 %40 % (4:53 am)15 % (3:53 pm)
Barometer30.11 in30.17 in (8:53 am)30.05 in (1:53 am)
Wind Speed2.9 mph6.9 mph (6:53 pm)
Weather ElementAverage
Visibility9.7 mi
Wind DirectionSE (138.7 °)

Weather ElementTotal
Precipitation---
Heating Degree Days13.1 (Base 65)
Growing Degree Days2 (Base 50)
Averaged from 23 records on November 9, 2013
WEATHER CONDITIONS BREAKOUT
WIND DIRECTION BREAKOUT
WEATHER BY HOUR - NOVEMBER 9, 2013
[ °C ]   °F
Local TimeTemperatureDewpointHumidityBarometerVisibilityWind DirectionWind SpeedGust SpeedPrecipitationEventsConditions
1:53 AM42.1 °F18.0 °F38 %30.05 in10.0 miSW (230°)4.6 mphClear
2:53 AM43.0 °F17.1 °F35 %30.05 in10.0 miSouth (170°)3.5 mphClear
3:53 AM41.0 °F17.1 °F38 %30.07 in10.0 miCalmClear
4:53 AM39.9 °F17.1 °F40 %30.10 in5.0 miCalmHaze
5:53 AM39.0 °F16.0 °F39 %30.12 in10.0 miSW (220°)3.5 mphClear
6:53 AM39.9 °F15.1 °F36 %30.14 in10.0 miCalmClear
7:53 AM44.1 °F16.0 °F32 %30.15 in9.0 miWSW (240°)4.6 mphClear
8:53 AM48.0 °F16.0 °F28 %30.17 in10.0 miWSW (240°)4.6 mphClear
9:53 AM52.0 °F15.1 °F23 %30.15 in10.0 miWest (280°)3.5 mphClear
10:53 AM54.0 °F16.0 °F22 %30.16 in10.0 miWest (280°)4.6 mphClear
11:53 AM57.0 °F19.0 °F23 %30.13 in10.0 miNNW (340°)3.5 mphClear
12:53 PM62.1 °F18.0 °F18 %30.10 in10.0 miENE (70°)4.6 mphClear
1:53 PM63.0 °F18.0 °F18 %30.08 in10.0 miVariable3.5 mphClear
2:53 PM64.0 °F18.0 °F17 %30.07 in10.0 miCalmClear
3:53 PM64.9 °F16.0 °F15 %30.07 in10.0 miNE (50°)3.5 mphClear
4:53 PM62.1 °F15.1 °F16 %30.08 in10.0 miCalmClear
5:53 PM55.9 °F18.0 °F23 %30.10 in10.0 miSouth (180°)3.5 mphClear
6:53 PM55.0 °F16.0 °F22 %30.11 in10.0 miSSE (150°)6.9 mphClear
7:53 PM54.0 °F18.0 °F24 %30.12 in10.0 miWNW (290°)3.5 mphClear
8:53 PM50.0 °F19.9 °F31 %30.13 in8.0 miCalmClear
9:53 PM51.1 °F19.9 °F29 %30.13 in10.0 miSSW (210°)3.5 mphClear
10:53 PM51.1 °F19.0 °F28 %30.14 in10.0 miWSW (240°)4.6 mphClear
11:53 PM46.9 °F19.9 °F34 %30.15 in10.0 miCalmClear
Hourly data recorded from KPGA, located miles away from Big Water, Utah







STORIES FROM OUR PARTNERS